EW9922 Weather Reports


Display with metric or nautical units.
time (UTC)temp
F
wind
direction
speed
MPH
gust
MPH
rain 1hr
in
rain 24hr
in
rain mn
in
humidity
%
barometer
mb
20200228035542 62 0.0 0.0 0.00 0.01 0.01 93 1009.7
20200228034542 62 0.0 0.0 0.00 0.01 0.01 93 1009.6
20200228033541 63 0.0 0.0 0.00 0.01 0.01 93 1009.5
20200228032542 63 0.0 1.0 0.00 0.01 0.01 93 1009.4
20200228031541 63 0.0 0.0 0.00 0.01 0.01 93 1009.3
20200228030541 63 0.0 0.0 0.00 0.01 0.01 92 1009.2
20200228025541 64 0.0 0.0 0.00 0.01 0.01 92 1009.1
20200228024541 64 0.0 0.0 0.00 0.01 0.01 91 1008.8
20200228023541 64 0.0 1.0 0.00 0.01 0.01 91 1008.7
20200228022541 64 0.0 2.0 0.00 0.01 0.01 91 1008.5
20200228021541 65 0.0 0.0 0.00 0.01 0.01 90 1008.4
20200228020542 65 0.0 0.0 0.00 0.01 0.01 90 1008.3
20200228015541 65 0.0 0.0 0.00 0.01 0.01 89 1008.2
20200228014542 66 0.0 0.0 0.00 0.01 0.01 88 1008.1
20200228013541 66 247 2.0 3.0 0.00 0.01 0.01 86 1008.0
20200228012541 68 247 2.0 3.0 0.00 0.01 0.01 84 1008.1
20200228011541 69 270 2.0 3.0 0.00 0.01 0.01 81 1008.2
20200228010541 71 292 1.0 2.0 0.00 0.01 0.01 78 1008.1
20200228005541 72 292 1.0 2.0 0.00 0.01 0.01 74 1008.1
20200228004541 74 292 1.0 2.0 0.00 0.01 0.01 73 1008.0
20200228003541 74 292 1.0 2.0 0.00 0.01 0.01 71 1008.0
20200228002541 74 292 1.0 2.0 0.00 0.01 0.01 70 1008.0
20200228001541 74 292 2.0 3.0 0.00 0.01 0.01 66 1008.0
20200228000541 74 270 2.0 4.0 0.00 0.01 0.01 66 1008.0
20200227235541 75 270 2.0 4.0 0.00 0.01 0.01 68 1008.0
20200227234541 75 247 4.0 7.0 0.00 0.01 0.01 70 1008.0
20200227233541 75 247 4.0 6.0 0.00 0.01 0.01 67 1007.9
20200227232542 75 270 3.0 6.0 0.00 0.01 0.01 69 1007.8
20200227231543 74 270 4.0 7.0 0.00 0.01 0.01 68 1007.8
20200227230541 75 247 3.0 7.0 0.00 0.01 0.01 70 1007.8
20200227225541 75 247 4.0 9.0 0.00 0.01 0.01 68 1007.7
20200227224541 75 225 5.0 10.0 0.00 0.01 0.01 70 1007.8
20200227223541 76 225 5.0 8.0 0.00 0.01 0.01 68 1007.8
20200227222541 76 225 5.0 8.0 0.00 0.01 0.01 69 1007.8
20200227221541 76 225 6.0 10.0 0.00 0.01 0.01 68 1007.9
20200227220541 76 225 6.0 9.0 0.00 0.01 0.01 67 1007.9
20200227215541 76 225 5.0 10.0 0.00 0.01 0.01 68 1008.0
20200227214541 76 225 6.0 10.0 0.00 0.01 0.01 69 1008.0
20200227213541 76 225 6.0 10.0 0.00 0.01 0.01 70 1008.1
20200227212541 76 225 7.0 12.0 0.00 0.01 0.01 71 1008.2
20200227211540 76 225 6.0 10.0 0.00 0.01 0.01 70 1008.2
20200227210541 76 225 6.0 10.0 0.00 0.01 0.01 71 1008.3
20200227205541 76 225 6.0 11.0 0.00 0.01 0.01 70 1008.2
20200227204542 76 225 6.0 10.0 0.00 0.01 0.01 70 1008.3
20200227203543 76 225 7.0 12.0 0.00 0.01 0.01 70 1008.4
20200227202543 76 225 6.0 11.0 0.00 0.01 0.01 74 1008.5
20200227201549 76 225 7.0 13.0 0.00 0.01 0.01 71 1008.5
20200227200542 76 225 7.0 11.0 0.00 0.01 0.01 71 1008.5
20200227195542 76 225 8.0 13.0 0.00 0.01 0.01 72 1008.5
20200227194543 75 225 7.0 12.0 0.00 0.01 0.01 72 1008.6
20200227193542 75 225 8.0 15.0 0.00 0.01 0.01 71 1008.7
20200227192543 75 225 7.0 14.0 0.00 0.01 0.01 75 1008.8
20200227191543 75 225 8.0 12.0 0.00 0.01 0.01 76 1008.9
20200227190542 75 225 7.0 11.0 0.00 0.01 0.01 77 1009.0
20200227185542 75 225 7.0 11.0 0.00 0.01 0.01 77 1009.0
20200227184542 75 225 8.0 12.0 0.00 0.01 0.01 77 1009.0
20200227183542 76 225 6.0 13.0 0.00 0.01 0.01 78 1009.1
20200227182543 75 225 4.0 8.0 0.00 0.01 0.01 78 1009.2
20200227181542 75 225 4.0 7.0 0.00 0.01 0.01 78 1009.3
20200227180542 75 225 4.0 8.0 0.00 0.01 0.01 78 1009.3
20200227175543 75 225 3.0 7.0 0.00 0.01 0.01 78 1009.2
20200227174542 74 225 4.0 7.0 0.00 0.01 0.01 79 1009.4
20200227173542 74 225 4.0 9.0 0.00 0.01 0.01 81 1009.4
20200227172542 73 202 3.0 5.0 0.00 0.01 0.01 83 1009.4
20200227171542 72 180 2.0 6.0 0.00 0.01 0.01 84 1009.3
20200227170542 71 225 2.0 3.0 0.00 0.01 0.01 85 1009.3
20200227165542 71 225 2.0 4.0 0.00 0.01 0.01 86 1009.4
20200227164542 69 315 1.0 3.0 0.00 0.01 0.01 88 1009.4
20200227163542 69 225 3.0 6.0 0.00 0.01 0.01 89 1009.4
20200227162542 69 225 3.0 5.0 0.00 0.01 0.01 90 1009.4
20200227161542 68 202 2.0 5.0 0.00 0.01 0.01 92 1009.4
20200227160542 67 202 2.0 4.0 0.00 0.01 0.01 94 1009.2
20200227155542 67 225 1.0 4.0 0.00 0.01 0.01 95 1009.1
20200227154541 66 135 1.0 2.0 0.00 0.01 0.01 95 1008.9
20200227153542 66 135 1.0 3.0 0.00 0.01 0.01 95 1008.8
20200227152542 66 0.0 4.0 0.00 0.01 0.01 94 1008.5
20200227151542 65 112 1.0 3.0 0.00 0.01 0.01 96 1008.4
20200227150542 64 112 1.0 2.0 0.00 0.01 0.01 98 1008.3
20200227145542 62 0.0 2.0 0.00 0.01 0.01 99 1008.1
20200227144542 61 0.0 1.0 0.00 0.01 0.01 100 1008.1
20200227143542 60 0.0 1.0 0.00 0.01 0.01 99 1007.9
20200227142542 59 112 1.0 1.0 0.00 0.01 0.01 99 1007.7
20200227141541 58 0.0 1.0 0.00 0.01 0.01 99 1007.5
20200227140544 57 0.0 1.0 0.00 0.01 0.01 99 1007.4
20200227135541 57 0.0 1.0 0.00 0.01 0.01 98 1007.2
20200227134541 57 0.0 1.0 0.00 0.01 0.01 98 1007.0
20200227133541 57 0.0 2.0 0.00 0.01 0.01 98 1006.8
20200227132542 57 112 1.0 2.0 0.00 0.01 0.01 98 1006.7
20200227131541 57 112 1.0 3.0 0.00 0.01 0.01 99 1006.4
20200227130541 57 0.0 2.0 0.00 0.01 0.01 98 1006.3
20200227125542 57 0.0 1.0 0.00 0.01 0.01 98 1006.2
20200227124542 57 0.0 2.0 0.00 0.01 0.01 98 1006.0
20200227123541 57 112 1.0 2.0 0.00 0.01 0.01 98 1005.9
20200227122541 57 0.0 2.0 0.00 0.01 0.01 98 1005.8
20200227121541 57 0.0 0.0 0.00 0.01 0.01 98 1005.7
20200227120541 57 0.0 0.0 0.00 0.01 0.01 98 1005.8
20200227115541 57 0.0 0.0 0.00 0.01 0.01 98 1005.8
20200227114542 58 0.0 0.0 0.00 0.01 0.01 98 1005.5
20200227113542 58 0.0 0.0 0.00 0.01 0.01 98 1005.4
20200227112541 58 0.0 0.0 0.00 0.01 0.01 99 1005.3
20200227111541 58 0.0 0.0 0.00 0.01 0.01 98 1005.3
20200227110542 58 0.0 0.0 0.00 0.01 0.01 98 1005.2
20200227105542 58 0.0 0.0 0.00 0.01 0.01 98 1005.2
20200227104541 58 0.0 0.0 0.00 0.01 0.01 98 1005.3
20200227103541 58 0.0 0.0 0.00 0.01 0.01 98 1005.4
20200227102541 58 0.0 0.0 0.01 0.01 0.01 98 1005.3
20200227101541 58 0.0 0.0 0.01 0.01 0.01 98 1005.3
20200227100541 58 0.0 1.0 0.01 0.01 0.01 97 1005.3
20200227095542 58 0.0 0.0 0.01 0.01 0.01 97 1005.3
20200227094541 59 0.0 0.0 0.01 0.01 0.01 98 1005.2
20200227093541 59 0.0 0.0 0.01 0.01 0.01 98 1005.2
20200227092541 59 0.0 0.0 0.00 0.00 0.00 98 1005.2
20200227090542 59 0.0 0.0 0.00 0.00 0.00 98 1005.3
20200227085541 59 0.0 0.0 0.00 0.01 0.00 98 1005.4
20200227084541 59 0.0 0.0 0.00 0.01 0.00 98 1005.5
20200227083541 59 0.0 0.0 0.00 0.01 0.00 98 1005.5
20200227082541 59 0.0 1.0 0.00 0.01 0.00 98 1005.5
20200227081541 59 0.0 0.0 0.00 0.01 0.00 97 1005.7
20200227080541 59 0.0 1.0 0.00 0.01 0.00 97 1005.8
20200227075541 59 0.0 1.0 0.00 0.01 0.00 97 1005.8
20200227074542 59 0.0 2.0 0.00 0.01 0.00 97 1005.8
20200227073541 59 0.0 0.0 0.00 0.01 0.00 98 1006.0
20200227072541 59 0.0 0.0 0.00 0.01 0.00 97 1006.2
20200227071541 59 0.0 0.0 0.00 0.01 0.00 97 1006.3
20200227070542 59 0.0 0.0 0.00 0.01 0.00 97 1006.4
20200227065542 59 0.0 0.0 0.00 0.01 0.01 97 1006.4
20200227064542 59 0.0 0.0 0.00 0.01 0.01 97 1006.4
20200227063542 59 0.0 0.0 0.00 0.01 0.01 96 1006.5
20200227062542 59 0.0 0.0 0.00 0.01 0.01 96 1006.4
20200227061542 60 0.0 0.0 0.00 0.01 0.01 96 1006.4
20200227060542 60 0.0 0.0 0.00 0.01 0.01 96 1006.3
20200227055542 60 0.0 0.0 0.00 0.01 0.01 96 1006.3
20200227054544 60 0.0 0.0 0.00 0.01 0.01 96 1006.2
20200227053542 61 0.0 0.0 0.00 0.01 0.01 96 1006.3
20200227052542 61 0.0 0.0 0.00 0.01 0.01 96 1006.2
20200227051541 61 0.0 0.0 0.00 0.01 0.01 96 1006.2
20200227050541 61 0.0 1.0 0.00 0.01 0.01 96 1006.1
20200227045541 61 0.0 0.0 0.00 0.01 0.01 96 1006.0
20200227044541 61 0.0 0.0 0.00 0.01 0.01 96 1006.1
20200227043541 61 0.0 0.0 0.00 0.01 0.01 95 1006.1
20200227042541 61 0.0 0.0 0.00 0.01 0.01 96 1006.0
20200227041541 61 0.0 0.0 0.00 0.01 0.01 95 1006.0
20200227040541 61 0.0 0.0 0.00 0.01 0.01 95 1006.0